Location: Antin
(43.3330°N, 0.2804°E)
Time: 23:37:13
(UTC+00:00)

SME Rocket - Pass Details

Date: 30 May 2022
Orbit: 551 x 2650 km, 99.9° (Epoch: 01 July)

Event Time Altitude Azimuth Distance (km) Brightness Sun altitude
Exits shadow 01:58:26 37° 242° (WSW) 1,032 3.7 -19.1°
Maximum altitude 01:59:03 39° 263° (W) 1,019 3.8 -19.1°
Drops below altitude 10° 02:03:55 10° 332° (NNW) 2,505 6.6 -18.6°
Sets 02:06:55 0° 340° (NNW) 3,732 7.6 -18.3°
